Regional Weather Roundup
Issued by NWS Newport/Morehead, NC

Current Version | Previous Version | Text Only | Print | Product List | Glossary Off
Versions: 1 2 3 4 5 6 7 8 9 10 11 12 13 14 15 16 17 18 19 20 21 22 23 24 25 26 27 28 29 30 31 32 33 34 35 36 37 38 39 40 41 42 43 44 45 46 47 48 49 50
000 ASUS42 KMHX 252213 RWRMHX WEATHER ROUNDUP FOR EASTERN NORTH CAROLINA NATIONAL WEATHER SERVICE NEWPORT/MOREHEAD CITY NC 600 PM EDT SAT MAR 25 2017 NOTE: "FAIR" INDICATES FEW OR NO CLOUDS BELOW 12,000 FEET WITH NO SIGNIFICANT WEATHER AND/OR OBSTRUCTIONS TO VISIBILITY NCZ015>017-031-032-045>047-102-103-252300- NORTH COAST CITY SKY/WX TMP DP RH WIND PRES REMARKS EDENTON CLOUDY 74 51 44 SW9 30.22 ELIZABETH CITY CLOUDY 72 51 47 S8 30.21S KITTY HAWK NOT AVBL MANTEO MOSUNNY 65 52 61 SW22 30.24S $$ NCZ045>047-081-094-103-104-252300- CENTRAL COAST CITY SKY/WX TMP DP RH WIND PRES REMARKS FRISCO MOSUNNY 67 54 63 W9 30.27F $$ NCZ095-097-098-100-101-252300- SOUTHERN COAST CITY SKY/WX TMP DP RH WIND PRES REMARKS BEAUFORT MOSUNNY 68 55 63 S10 30.27F CEDAR ISLAND NOT AVBL JACKSONVILLE MOSUNNY 70 54 56 S13 30.25S PINEY ISLAND PTCLDY N/A N/A N/A S9 30.26F WILMINGTON PTSUNNY 71 52 50 S9 30.25F $$ NCZ011>013-027>030-043-044-078>080-089-090>093-098-252300- COASTAL PLAIN CITY SKY/WX TMP DP RH WIND PRES REMARKS AHOSKIE N/A 72 50 45 S3 30.20 CLINTON CLOUDY 73 54 52 S6 30.22F ELIZABETHTOWN MOSUNNY 73 52 46 S9 30.22F GOLDSBORO MOSUNNY 74 49 41 SW12G18 30.19F GREENVILLE CLOUDY 73 50 43 SW9 30.22S HAVELOCK MOSUNNY 70 50 49 S13G22 30.26F KENANSVILLE CLOUDY 72 52 49 S7 30.23S KINSTON MOSUNNY 73 50 43 S13 30.22F NEW BERN MOSUNNY 71 51 49 SW13 30.25F RICHLANDS MOSUNNY 70 53 54 S10 30.24F ROCKY MOUNT CLOUDY 72 51 47 S13 30.20F WASHINGTON CLOUDY 72 51 47 SW9G17 30.22S WHITEVILLE MOSUNNY 71 51 48 S12G17 30.23S $$ AMZ130-135-150-152-154-156-158-170-250-252-270-ANZ085-086-088-633-658-670-252300- MARINE OBSERVATIONS STATION/POSITION TIME TEMP WIND PRES WAVE SWELL AIR SEA DIR/SP/G HT/PER HT/PER (UTC) (F) (DEG/KT/KT) (MB) (FT/S) (FT/S) CHESAPEAKE LIGHT NOT AVBL 64 E VA BEACH 2150 55 49 210/ 14/ 14 1023.6 3/ 5 2/ 7 DUCK 2148 68 47 180/ 8/ 10 1022.8 2 E DUCK 2130 51 N/A 1/10 OREGON INLET 2142 61 58 190/ 15/ 17 1024.2 13E OREGON INLT 2148 50 N/A 2/ 7 2/ 7 HATTERAS CG 2148 67 58 230/ 11/ 14 1024.7 DIAMOND BUOY 2150 70 77 230/ 16/ 17 1024.9 3/ 5 2/ 8 CAPE LOOKOUT 2200 68 240/ 5/ 7 1024.9 BEAUFORT LAB 2148 65 200/ 8/ 10 1024.2 30 SE NEW RVR IN 2108 68 210/ 8/ 12 1025.3 30 SE NEW RVR IN 2143 66 N/A 3/ 7 27 SE WRIGHTSVLE NOT AVBL 5 SE WRIGHTSVLE 2108 62 59 170/ 4/ 8 1025.0 225 S CAPE HAT 2150 66 73 90/ 8/ 12 1025.6 4/ 7 5/ 7 41 SE CHARLESTON 2150 70 72 150/ 12/ 14 1023.3 4/ 8 3/ 8 $$

USA.gov is the U.S. government's official web portal to all federal, state and local government web resources and services.